パンスターズ彗星

C/2016 E1 ( PanSTARRS )

English version
Home page
Updated on May 21, 2018

---------------------------------------------------------------------

・ プロフィール

発見日 2016年3月3日
発見光度 21.1等
発見者 Pan-STARRS 1 telescope (Haleakala)

・ 写真集

・ 軌道要素

Epoch 2017 June 16.0 TT = JDT 2457920.5
T 2017 June 1.43393 TT                                  MPCW
q   8.1767629            (2000.0)            P               Q
z  -0.0003823      Peri.   47.30986     -0.79986448     +0.08024050
 +/-0.0000010      Node   233.03594     -0.44393143     +0.58783854
e   1.0031257      Incl.  131.89161     +0.40390803     +0.80498901
From 139 observations 2016 Mar. 3-2018 Mar. 13, mean residual 0".4.

・ 光度変化

        m1 = 5.7 + 5 logΔ + 10.0 log r

---------------------------------------------------------------------

軌道要素はM.P.E.C. 2018-F152に掲載されたものです。
光度グラフはComet for Windowsで作成したものです。

---------------------------------------------------------------------

Copyright(C) Seiichi Yoshida (comet@aerith.net). All rights reserved.